Meteo pe oră la Dziedzice

Astăzi, 5 Martie, Vineri

Timp Temperatura Precipitaţii Vânt Presiune Umiditate
00:00 -2°C° 0 mm 3 m/s 750 mmHg 83%
01:00 -2°C° 0 mm 3 m/s 750 mmHg 80%
02:00 -2°C° 0 mm 3 m/s 750 mmHg 81%
03:00 -4°C° 0 mm 3 m/s 751 mmHg 82%
04:00 -4°C° 0 mm 3 m/s 751 mmHg 82%
05:00 -4°C° 0 mm 3 m/s 751 mmHg 80%
06:00 -4°C° 0 mm 3 m/s 751 mmHg 78%
07:00 -4°C° 0 mm 3 m/s 752 mmHg 76%
08:00 -3°C° 0 mm 4 m/s 752 mmHg 68%
09:00 -2°C° 0 mm 4 m/s 753 mmHg 61%
10:00 -1°C° 0 mm 4 m/s 753 mmHg 54%
11:00 0°C° 0 mm 4 m/s 753 mmHg 52%
12:00 +1°C° 0 mm 3 m/s 754 mmHg 50%
13:00 +2°C° 0 mm 3 m/s 754 mmHg 49%
14:00 +2°C° 0.2 mm 3 m/s 754 mmHg 49%
15:00 +1°C° 0.2 mm 4 m/s 754 mmHg 49%
16:00 +1°C° 0.2 mm 4 m/s 755 mmHg 49%
17:00 0°C° 0 mm 3 m/s 755 mmHg 53%
18:00 -1°C° 0 mm 3 m/s 756 mmHg 57%
19:00 -2°C° 0 mm 3 m/s 756 mmHg 61%
20:00 -2°C° 0 mm 3 m/s 757 mmHg 64%
21:00 -2°C° 0 mm 3 m/s 757 mmHg 67%
22:00 -4°C° 0 mm 3 m/s 758 mmHg 70%
23:00 -4°C° 0 mm 3 m/s 758 mmHg 73%

Mâine, 6 Martie, Sâmbătă

Timp Temperatura Precipitaţii Vânt Presiune Umiditate
00:00 -4°C° 0 mm 3 m/s 758 mmHg 76%
01:00 -4°C° 0 mm 3 m/s 759 mmHg 79%
02:00 -4°C° 0 mm 3 m/s 759 mmHg 77%
03:00 -4°C° 0 mm 3 m/s 759 mmHg 76%
04:00 -4°C° 0 mm 4 m/s 759 mmHg 74%
05:00 -4°C° 0 mm 3 m/s 759 mmHg 74%
06:00 -4°C° 0 mm 3 m/s 760 mmHg 73%
07:00 -3°C° 0 mm 2 m/s 760 mmHg 73%
08:00 -2°C° 0 mm 3 m/s 760 mmHg 66%
09:00 0°C° 0 mm 3 m/s 760 mmHg 59%
10:00 +1°C° 0 mm 3 m/s 760 mmHg 52%
11:00 +1°C° 0 mm 4 m/s 760 mmHg 48%
12:00 +1°C° 0 mm 4 m/s 760 mmHg 45%
13:00 +2°C° 0 mm 5 m/s 759 mmHg 42%
14:00 +2°C° 0 mm 5 m/s 759 mmHg 43%
15:00 +1°C° 0 mm 5 m/s 759 mmHg 45%
16:00 +1°C° 0 mm 5 m/s 758 mmHg 46%
17:00 0°C° 0 mm 5 m/s 758 mmHg 52%
18:00 -1°C° 0 mm 5 m/s 757 mmHg 58%
19:00 -2°C° 0 mm 5 m/s 757 mmHg 64%
20:00 -2°C° 0 mm 5 m/s 757 mmHg 70%
21:00 -3°C° 0 mm 6 m/s 756 mmHg 75%
22:00 -3°C° 0 mm 6 m/s 756 mmHg 81%
23:00 -3°C° 0 mm 7 m/s 756 mmHg 83%

Poimâine, 7 Martie, Duminică

Timp Temperatura Precipitaţii Vânt Presiune Umiditate
00:00 -3°C° 0 mm 7 m/s 755 mmHg 86%
01:00 -2°C° 0 mm 7 m/s 755 mmHg 88%
02:00 -2°C° 0.1 mm 8 m/s 754 mmHg 87%
03:00 -2°C° 0.1 mm 8 m/s 754 mmHg 86%
04:00 -2°C° 0.1 mm 8 m/s 753 mmHg 85%
05:00 -4°C° 0 mm 8 m/s 753 mmHg 83%
06:00 -4°C° 0 mm 8 m/s 753 mmHg 81%
07:00 -4°C° 0 mm 8 m/s 753 mmHg 79%
08:00 -2°C° 0 mm 8 m/s 752 mmHg 76%
09:00 -2°C° 0 mm 8 m/s 752 mmHg 74%
10:00 -1°C° 0 mm 9 m/s 752 mmHg 71%
11:00 -1°C° 0 mm 9 m/s 752 mmHg 70%
12:00 -1°C° 0 mm 9 m/s 752 mmHg 70%
13:00 -1°C° 0 mm 9 m/s 751 mmHg 69%
14:00 -1°C° 0 mm 8 m/s 751 mmHg 72%
15:00 -1°C° 0 mm 8 m/s 751 mmHg 75%
16:00 -2°C° 0 mm 8 m/s 750 mmHg 77%
17:00 -2°C° 0 mm 7 m/s 750 mmHg 79%
18:00 -3°C° 0 mm 7 m/s 750 mmHg 82%
19:00 -3°C° 0 mm 7 m/s 749 mmHg 84%
20:00 -3°C° 0 mm 7 m/s 749 mmHg 84%
21:00 -3°C° 0 mm 7 m/s 749 mmHg 84%
22:00 -3°C° 0 mm 7 m/s 749 mmHg 84%
23:00 -3°C° 0.1 mm 6 m/s 749 mmHg 87%

8 Martie, Luni

Timp Temperatura Precipitaţii Vânt Presiune Umiditate
00:00 -3°C° 0.1 mm 6 m/s 749 mmHg 90%
01:00 -4°C° 0.1 mm 5 m/s 749 mmHg 93%
02:00 -4°C° 0.6 mm 5 m/s 748 mmHg 93%
03:00 -3°C° 0.6 mm 4 m/s 748 mmHg 93%
04:00 -4°C° 0.6 mm 4 m/s 748 mmHg 93%
05:00 -4°C° 0.1 mm 3 m/s 749 mmHg 91%
06:00 -5°C° 0.1 mm 3 m/s 749 mmHg 88%
07:00 -4°C° 0.1 mm 2 m/s 750 mmHg 85%
08:00 -4°C° 0 mm 3 m/s 750 mmHg 78%
09:00 -2°C° 0 mm 3 m/s 750 mmHg 70%
10:00 -2°C° 0 mm 4 m/s 751 mmHg 63%
11:00 -1°C° 0.1 mm 4 m/s 751 mmHg 61%
12:00 -1°C° 0.1 mm 4 m/s 752 mmHg 59%
13:00 0°C° 0.1 mm 4 m/s 752 mmHg 56%
14:00 -1°C° 0.1 mm 5 m/s 752 mmHg 60%
15:00 -1°C° 0.1 mm 5 m/s 752 mmHg 63%
16:00 -1°C° 0.1 mm 5 m/s 753 mmHg 66%
17:00 -2°C° 0 mm 5 m/s 753 mmHg 71%
18:00 -4°C° 0 mm 4 m/s 754 mmHg 76%
19:00 -5°C° 0 mm 4 m/s 755 mmHg 81%
20:00 -5°C° 0 mm 3 m/s 755 mmHg 82%
21:00 -6°C° 0 mm 3 m/s 755 mmHg 84%
22:00 -5°C° 0 mm 2 m/s 756 mmHg 85%
23:00 -5°C° 0 mm 2 m/s 756 mmHg 84%

9 Martie, Marţi

Timp Temperatura Precipitaţii Vânt Presiune Umiditate
00:00 -5°C° 0 mm 2 m/s 756 mmHg 82%
01:00 -5°C° 0 mm 2 m/s 756 mmHg 81%
02:00 -5°C° 0 mm 2 m/s 756 mmHg 80%
03:00 -5°C° 0 mm 2 m/s 756 mmHg 79%
04:00 -5°C° 0 mm 2 m/s 757 mmHg 78%
05:00 -5°C° 0 mm 2 m/s 757 mmHg 76%
06:00 -5°C° 0 mm 2 m/s 757 mmHg 74%
07:00 -4°C° 0 mm 2 m/s 757 mmHg 72%
08:00 -4°C° 0 mm 2 m/s 758 mmHg 65%
09:00 -4°C° 0 mm 3 m/s 758 mmHg 58%
10:00 -2°C° 0 mm 3 m/s 758 mmHg 51%
11:00 -2°C° 0 mm 2 m/s 758 mmHg 47%
12:00 -1°C° 0 mm 2 m/s 759 mmHg 43%
13:00 -1°C° 0 mm 2 m/s 759 mmHg 39%
14:00 -1°C° 0 mm 2 m/s 759 mmHg 39%
15:00 -1°C° 0 mm 2 m/s 758 mmHg 39%
16:00 -1°C° 0 mm 2 m/s 758 mmHg 39%
17:00 -2°C° 0 mm 2 m/s 759 mmHg 44%
18:00 -3°C° 0 mm 2 m/s 759 mmHg 49%
19:00 -4°C° 0 mm 2 m/s 759 mmHg 55%
20:00 -5°C° 0 mm 2 m/s 760 mmHg 55%
21:00 -5°C° 0 mm 2 m/s 760 mmHg 56%
22:00 -5°C° 0 mm 2 m/s 760 mmHg 57%
23:00 -5°C° 0 mm 2 m/s 760 mmHg 57%

10 Martie, Miercuri

Timp Temperatura Precipitaţii Vânt Presiune Umiditate
00:00 -5°C° 0 mm 2 m/s 760 mmHg 57%
01:00 -6°C° 0 mm 2 m/s 760 mmHg 58%
02:00 -6°C° 0 mm 2 m/s 760 mmHg 58%
03:00 -6°C° 0 mm 2 m/s 760 mmHg 58%
04:00 -6°C° 0 mm 2 m/s 760 mmHg 58%
05:00 -6°C° 0 mm 2 m/s 760 mmHg 58%
06:00 -7°C° 0 mm 3 m/s 760 mmHg 57%
07:00 -7°C° 0 mm 3 m/s 760 mmHg 57%
08:00 -5°C° 0 mm 3 m/s 760 mmHg 51%
09:00 -4°C° 0 mm 4 m/s 760 mmHg 45%
10:00 -3°C° 0 mm 4 m/s 760 mmHg 39%
11:00 -2°C° 0 mm 5 m/s 759 mmHg 37%
12:00 -1°C° 0 mm 5 m/s 759 mmHg 35%
13:00 0°C° 0 mm 5 m/s 758 mmHg 33%
14:00 0°C° 0 mm 5 m/s 758 mmHg 34%
15:00 -1°C° 0 mm 6 m/s 757 mmHg 35%
16:00 -1°C° 0 mm 6 m/s 756 mmHg 36%
17:00 -2°C° 0 mm 6 m/s 756 mmHg 39%
18:00 -2°C° 0 mm 5 m/s 756 mmHg 41%
19:00 -4°C° 0 mm 5 m/s 755 mmHg 44%
20:00 -4°C° 0 mm 6 m/s 754 mmHg 43%
21:00 -4°C° 0 mm 6 m/s 754 mmHg 42%
22:00 -4°C° 0 mm 7 m/s 753 mmHg 41%
23:00 -4°C° 0 mm 7 m/s 752 mmHg 42%
Arată mai mult

Formular de consimțământ

Meteoprog și furnizorii noștri de servicii pot stoca și accesa date personale, precum cookies, identificatori de dispozitiv sau alte tehnologii similare pe dispozitivul dumneavoastră și procesa astfel de date pentru a personaliza conținutul și reclamele, dar și pentru a oferi caracteristici de social media și pentru a analiza traficul.

  • Stocarea și/sau accesarea informațiilor pe dispozitivul dumneavoastră

    Cookies, identificatori de dispozitiv sau alte informații pot fi stocate sau accesate pe dispozitiv în scopurile indicate mai sus.

  • Reclame și conținut personalizat, evaluarea reclamelor și a conținutului, informații despre audiențe și dezvoltarea produselor

    Reclamele și conținutul pot fi personalizate pe baza unui profil. Pot fi adăugate date suplimentare pentru a personaliza mai bine reclamele și conținutul. Performanța reclamelor și conținutului poate fi măsurată. Pot fi obținute informații despre utilizatorii care au văzut reclamele și conținutul. Aceste date pot fi utilizate pentru a dezvolta sau îmbunătăți experiența utilizatorilor, sistemele și software-ul.

Dând clic pe ‘Sunt de acord’, permiteți utilizarea cookie-urilor menționate, a identificatorilor de dispozitiv, balizelor web sau altor tehnologii similare. Setările pot fi modificate din browser-ul dispozitivului dumneavoastră.

În anumite scopuri, interesele legitime pot prima asupra consimțământului. Puteți citi mai multe informații în acest sens în Politica privind Confidențialitatea Datelor și Cookie.